Torna al catalogo

STARLINK-37976

AttivoComunicazioniSSO
NORAD 69697·PAYLOAD·🇺🇸 United States

Lanciato Jun 25, 2026 da Vandenberg Space Force Base

Loading…

Prossimi Passaggi (prossime 24 ore)

TLE

AggiornatoSource: CelesTrak SupGP

Epoca: Sep 14, 2026, 22:53 UTC

1 69697C 26145W   26257.95395833  .00093344  00000+0  28980-2 0  2570
2 69697  97.2849 104.7605 0001701  91.3262  41.0398 15.33387590    13

Traccia STARLINK-37976 in tempo reale con AllMySat

Download on the App Store